| time (UTC) | temp C | wind direction | speed KPH | gust KPH | rain 1hr cm | rain 24hr cm | rain mn cm | humidity % | barometer mb |
| 20260509044603 | 5 | 48 | 0.0 | 3.2 | 0.00 | 0.03 | 0.03 | 91 | 1019.6 |
| 20260509043056 | 5 | 48 | 0.0 | 3.2 | 0.03 | 0.03 | 0.03 | 90 | 1019.6 |
| 20260509041554 | 5 | 48 | 0.0 | 4.8 | 0.03 | 0.03 | 0.03 | 90 | 1019.5 |
| 20260509040058 | 5 | 48 | 0.0 | 1.6 | 0.03 | 0.03 | 0.03 | 90 | 1019.6 |
| 20260509034553 | 5 | 48 | 0.0 | 1.6 | 0.00 | 0.00 | 0.00 | 90 | 1019.5 |
| 20260509033052 | 5 | 48 | 0.0 | 0.0 | 0.00 | 0.00 | 0.00 | 90 | 1019.5 |
| 20260509031551 | 5 | 48 | 0.0 | 4.8 | 0.00 | 0.00 | 0.00 | 90 | 1019.4 |
| 20260509030049 | 5 | 48 | 1.6 | 4.8 | 0.00 | 0.00 | 0.00 | 90 | 1019.5 |
| 20260509024547 | 5 | 68 | 0.0 | 3.2 | 0.00 | 0.00 | 0.00 | 89 | 1019.5 |
| 20260509023058 | 5 | 68 | 0.0 | 3.2 | 0.00 | 0.00 | 0.00 | 89 | 1019.4 |
| 20260509021546 | 5 | 43 | 0.0 | 4.8 | 0.00 | 0.00 | 0.00 | 89 | 1019.2 |
| 20260509020044 | 5 | 22 | 0.0 | 4.8 | 0.00 | 0.00 | 0.00 | 89 | 1019.1 |
| 20260509014545 | 6 | 22 | 0.0 | 3.2 | 0.00 | 0.00 | 0.00 | 89 | 1019.2 |
| 20260509013043 | 6 | 22 | 0.0 | 3.2 | 0.00 | 0.00 | 0.00 | 89 | 1019.3 |
| 20260509011541 | 6 | 22 | 0.0 | 0.0 | 0.00 | 0.00 | 0.00 | 88 | 1019.4 |
| 20260509010041 | 6 | 22 | 0.0 | 0.0 | 0.00 | 0.00 | 0.00 | 88 | 1019.3 |
| 20260509004540 | 6 | 22 | 0.0 | 0.0 | 0.00 | 0.00 | 0.00 | 88 | 1019.3 |
| 20260509003050 | 6 | 22 | 0.0 | 0.0 | 0.00 | 0.00 | 0.00 | 87 | 1019.3 |
| 20260509001537 | 6 | 22 | 0.0 | 0.0 | 0.00 | 0.00 | 0.00 | 86 | 1019.2 |
| 20260509000041 | 6 | 22 | 0.0 | 0.0 | 0.00 | 0.00 | 0.00 | 86 | 1019.2 |
| 20260508234537 | 6 | 22 | 0.0 | 0.0 | 0.00 | 0.00 | 0.00 | 86 | 1019.5 |
| 20260508233029 | 7 | 22 | 0.0 | 0.0 | 0.00 | 0.00 | 0.00 | 86 | 1019.4 |
| 20260508231527 | 7 | 22 | 0.0 | 0.0 | 0.00 | 0.00 | 0.00 | 85 | 1019.5 |
| 20260508230026 | 7 | 22 | 0.0 | 1.6 | 0.00 | 0.00 | 0.00 | 85 | 1019.6 |
| 20260508224524 | 7 | 22 | 0.0 | 1.6 | 0.00 | 0.00 | 0.00 | 84 | 1019.6 |
| 20260508223026 | 8 | 22 | 0.0 | 1.6 | 0.00 | 0.00 | 0.00 | 84 | 1019.7 |
| 20260508221519 | 8 | 22 | 0.0 | 1.6 | 0.00 | 0.00 | 0.00 | 83 | 1019.6 |
| 20260508220017 | 8 | 350 | 0.0 | 6.4 | 0.00 | 0.00 | 0.00 | 83 | 1019.4 |
| 20260508214516 | 8 | 29 | 0.0 | 3.2 | 0.00 | 0.00 | 0.00 | 82 | 1019.4 |
| 20260508213022 | 9 | 40 | 0.0 | 4.8 | 0.00 | 0.00 | 0.00 | 82 | 1019.2 |
| 20260508211515 | 9 | 53 | 0.0 | 3.2 | 0.00 | 0.00 | 0.00 | 81 | 1019.3 |
| 20260508210015 | 10 | 73 | 0.0 | 3.2 | 0.00 | 0.00 | 0.00 | 80 | 1019.4 |
| 20260508204513 | 10 | 48 | 1.6 | 6.4 | 0.00 | 0.00 | 0.00 | 79 | 1019.4 |
| 20260508203015 | 10 | 57 | 1.6 | 3.2 | 0.00 | 0.00 | 0.00 | 78 | 1019.3 |
| 20260508201519 | 10 | 30 | 1.6 | 6.4 | 0.00 | 0.00 | 0.00 | 78 | 1019.3 |
| 20260508200019 | 11 | 51 | 1.6 | 4.8 | 0.00 | 0.00 | 0.00 | 77 | 1019.2 |
| 20260508194510 | 11 | 65 | 1.6 | 6.4 | 0.00 | 0.00 | 0.00 | 76 | 1019.1 |
| 20260508193016 | 11 | 59 | 1.6 | 4.8 | 0.00 | 0.00 | 0.00 | 75 | 1018.9 |
| 20260508191514 | 11 | 69 | 0.0 | 4.8 | 0.00 | 0.00 | 0.00 | 74 | 1018.8 |
| 20260508190008 | 12 | 56 | 0.0 | 3.2 | 0.00 | 0.00 | 0.00 | 72 | 1018.6 |
| 20260508184508 | 12 | 59 | 0.0 | 3.2 | 0.00 | 0.00 | 0.00 | 70 | 1018.3 |
| 20260508183007 | 13 | 53 | 0.0 | 4.8 | 0.00 | 0.00 | 0.00 | 68 | 1018.1 |
| 20260508181505 | 13 | 290 | 0.0 | 4.8 | 0.00 | 0.00 | 0.00 | 67 | 1017.8 |
| 20260508180006 | 14 | 64 | 0.0 | 4.8 | 0.00 | 0.00 | 0.00 | 66 | 1017.6 |
| 20260508174507 | 15 | 360 | 0.0 | 8.0 | 0.00 | 0.00 | 0.00 | 65 | 1017.4 |
| 20260508173006 | 15 | 67 | 1.6 | 8.0 | 0.00 | 0.00 | 0.00 | 63 | 1017.3 |
| 20260508171508 | 16 | 78 | 1.6 | 4.8 | 0.00 | 0.00 | 0.00 | 62 | 1017.4 |
| 20260508170004 | 16 | 49 | 1.6 | 6.4 | 0.00 | 0.00 | 0.00 | 60 | 1017.2 |
| 20260508164503 | 16 | 49 | 1.6 | 8.0 | 0.00 | 0.00 | 0.00 | 60 | 1017.3 |
| 20260508163002 | 16 | 350 | 3.2 | 8.0 | 0.00 | 0.00 | 0.00 | 61 | 1017.3 |
| 20260508161503 | 16 | 132 | 3.2 | 6.4 | 0.00 | 0.00 | 0.00 | 59 | 1017.3 |
| 20260508160001 | 16 | 42 | 1.6 | 4.8 | 0.00 | 0.00 | 0.00 | 59 | 1017.3 |
| 20260508154600 | 16 | 78 | 1.6 | 8.0 | 0.00 | 0.00 | 0.00 | 60 | 1017.3 |
| 20260508153059 | 16 | 308 | 0.0 | 4.8 | 0.00 | 0.00 | 0.00 | 58 | 1017.3 |
| 20260508151608 | 16 | 306 | 1.6 | 6.4 | 0.00 | 0.00 | 0.00 | 59 | 1017.4 |
| 20260508150058 | 16 | 285 | 0.0 | 4.8 | 0.00 | 0.00 | 0.00 | 58 | 1017.6 |
| 20260508144557 | 16 | 343 | 0.0 | 8.0 | 0.00 | 0.00 | 0.00 | 58 | 1017.7 |
| 20260508143056 | 16 | 160 | 1.6 | 4.8 | 0.00 | 0.00 | 0.00 | 58 | 1017.7 |
| 20260508141556 | 17 | 225 | 0.0 | 6.4 | 0.00 | 0.00 | 0.00 | 55 | 1017.8 |
| 20260508140057 | 17 | 283 | 3.2 | 6.4 | 0.00 | 0.00 | 0.00 | 54 | 1017.9 |
| 20260508134558 | 17 | 114 | 1.6 | 8.0 | 0.00 | 0.03 | 0.00 | 58 | 1017.9 |
| 20260508133102 | 17 | 300 | 1.6 | 8.0 | 0.00 | 0.03 | 0.00 | 59 | 1018.2 |
| 20260508131548 | 16 | 14 | 1.6 | 6.4 | 0.00 | 0.03 | 0.00 | 64 | 1018.2 |
| 20260508130046 | 16 | 56 | 0.0 | 6.4 | 0.00 | 0.03 | 0.00 | 61 | 1018.4 |
| 20260508124541 | 15 | 299 | 1.6 | 4.8 | 0.00 | 0.03 | 0.00 | 68 | 1018.6 |
| 20260508123053 | 15 | 36 | 3.2 | 9.7 | 0.00 | 0.03 | 0.00 | 65 | 1018.8 |
| 20260508121549 | 15 | 296 | 0.0 | 4.8 | 0.00 | 0.03 | 0.00 | 66 | 1018.7 |
| 20260508120036 | 15 | 360 | 1.6 | 4.8 | 0.00 | 0.03 | 0.00 | 66 | 1018.7 |
| 20260508114533 | 14 | 263 | 0.0 | 4.8 | 0.00 | 0.03 | 0.00 | 68 | 1018.7 |
| 20260508113032 | 13 | 30 | 1.6 | 6.4 | 0.00 | 0.03 | 0.00 | 68 | 1018.5 |
| 20260508111530 | 13 | 42 | 1.6 | 6.4 | 0.00 | 0.03 | 0.00 | 68 | 1018.6 |
| 20260508110029 | 13 | 276 | 0.0 | 4.8 | 0.00 | 0.03 | 0.00 | 69 | 1018.7 |
| 20260508104529 | 13 | 53 | 1.6 | 6.4 | 0.00 | 0.05 | 0.00 | 69 | 1018.7 |
| 20260508103029 | 13 | 219 | 1.6 | 4.8 | 0.00 | 0.05 | 0.00 | 69 | 1018.7 |
| 20260508101527 | 13 | 288 | 1.6 | 8.0 | 0.00 | 0.05 | 0.00 | 71 | 1018.6 |
| 20260508100027 | 13 | 103 | 0.0 | 4.8 | 0.00 | 0.05 | 0.00 | 70 | 1018.7 |
| 20260508094524 | 13 | 229 | 1.6 | 6.4 | 0.00 | 0.05 | 0.00 | 73 | 1018.9 |
| 20260508093024 | 13 | 45 | 0.0 | 4.8 | 0.00 | 0.05 | 0.00 | 75 | 1018.9 |
| 20260508091525 | 12 | 63 | 1.6 | 6.4 | 0.00 | 0.05 | 0.00 | 75 | 1018.9 |
| 20260508090021 | 12 | 287 | 0.0 | 8.0 | 0.00 | 0.05 | 0.00 | 78 | 1019.0 |
| 20260508084511 | 11 | 51 | 3.2 | 6.4 | 0.00 | 0.05 | 0.00 | 79 | 1019.1 |
| 20260508083009 | 11 | 9 | 0.0 | 4.8 | 0.00 | 0.05 | 0.00 | 80 | 1019.2 |
| 20260508081505 | 10 | 219 | 1.6 | 4.8 | 0.00 | 0.05 | 0.00 | 81 | 1019.1 |
| 20260508080004 | 10 | 298 | 1.6 | 4.8 | 0.00 | 0.05 | 0.00 | 82 | 1019.2 |
| 20260508074601 | 10 | 288 | 0.0 | 4.8 | 0.00 | 0.05 | 0.00 | 83 | 1019.1 |
| 20260508073058 | 10 | 290 | 0.0 | 4.8 | 0.00 | 0.05 | 0.00 | 84 | 1019.0 |
| 20260508071558 | 9 | 63 | 1.6 | 4.8 | 0.00 | 0.05 | 0.00 | 85 | 1018.8 |
| 20260508070101 | 9 | 346 | 0.0 | 6.4 | 0.00 | 0.05 | 0.00 | 85 | 1018.6 |
| 20260508064550 | 8 | 322 | 0.0 | 3.2 | 0.00 | 0.05 | 0.00 | 86 | 1018.5 |
| 20260508063050 | 8 | 311 | 0.0 | 6.4 | 0.00 | 0.05 | 0.00 | 87 | 1018.4 |
| 20260508061548 | 8 | 82 | 0.0 | 3.2 | 0.00 | 0.05 | 0.00 | 87 | 1018.2 |
| 20260508060047 | 8 | 46 | 0.0 | 4.8 | 0.00 | 0.05 | 0.00 | 87 | 1018.2 |
| 20260508054547 | 8 | 54 | 0.0 | 6.4 | 0.00 | 0.05 | 0.00 | 88 | 1018.0 |
| 20260508053049 | 8 | 81 | 0.0 | 3.2 | 0.00 | 0.05 | 0.00 | 88 | 1017.7 |
| 20260508051543 | 8 | 31 | 0.0 | 4.8 | 0.00 | 0.05 | 0.00 | 88 | 1017.8 |
| 20260508050040 | 7 | 64 | 0.0 | 3.2 | 0.00 | 0.05 | 0.00 | 88 | 1017.5 |